COSMOS 1275 DEB

Satellite information

Favourite Embed

Satellite Type and Status

DEBRISIN ORBIT

Key statistics

Satellite COSMOS 1275 DEB at a glance.

Uptime

16210

Days in orbit

Revolutions

≈ 13.9

Per day

Orbit

LEO

Low Earth Orbit

Inclination

82.7

Latest

Satellite identification and parameters

Extended collection of information and parameters for COSMOS 1275 DEB.

Object identification

Identified? True

Debris? True

Object name: COSMOS 1275 DEB

International designator: 1981-053FQ

Object number (NORAD): 13468

Object ID (CCSDS): 13468

Country: COMMONWEALTH OF INDEPENDENT STATES (CIS)

Current information (Y/N): Y

RCS size: SMALL

Orbital parameters

Period: 103.42 minutes

Inclination: 82.7057 deg

SMA: 7298.444 km

Apoapsis: 967.242 km

Periapsis: 873.375 km

RAAN: 337.3823 deg

Eccentricy: 0.00643062

Argument of periapsis: 152.4357 deg

Mean anomaly: 262.1165 deg

Mean motion: 13.92378723 rev/day

Mean motion (dot): 0.00001986 rev/day2

B* drag term: 0.0015083747 1/REarth

Two-line elements (TLE)

Creation date: Oct. 21, 2025, 3:26 a.m.

Reference frame: TEME

Reference center: EARTH

Epoch: Oct. 20, 2025, 10:04 p.m. UTC

TLE line 0: 0 COSMOS 1275 DEB

TLE line 1: 1 13468U 81053FQ 25293.91963296 .00001986 00000-0 15084-2 0 9999

TLE line 2: 2 13468 82.7057 337.3823 0064306 152.4357 262.1165 13.92378723183761

Live tracking on map

Real-time ground track for satellite COSMOS 1275 DEB.

In-orbit conjunctions

A list of the most updated potential collisions computed for object COSMOS 1275 DEB.

Target Orbit TCA Probability of collision Miss distance Type
COSMOS 1417 DEB LEO 2025-09-23 16:36:40 0.0001676025 112.0 (m) DEBRIS
FENGYUN 1C DEB SSO 2025-02-18 12:47:19 0.0001585798 183.0 (m) DEBRIS

Associated space launch

Navigation satellite providing location information for the Tsiklon-B navigation system

COSMOS 1275 DEB was lifted into orbit during the mission ‘Kosmos-3M | Parus 27’, on board a Kosmos-3M space rocket.

The launch took place on June 4, 1981, 3:41 p.m. from 132/2.

For more information about the launch, click the button.

Launch to space Kosmos-3M | Parus 27
Kosmos-3M | Parus 27

Agency: N/A

Status: Launch Successful

Launch date: June 4, 1981, 3:41 p.m. UTC

Rocket: Kosmos-3M

Launch pad: 132/2

Location: Plesetsk Cosmodrome, Russian Federation

...

Latest news about this satellite

There are no fresh news available about this satellite. Check back as we update our databases every day.


Newsletter sign-up

Weekly statistics, charts and insights to help you stay on top of the space industry.